Weather Roundup
Issued by NWS

Home | Current Version | Previous Version | Graphics & Text | Print | Product List | Glossary Off
Versions: 1 2 3 4 5 6 7 8 9 10 11 12 13 14 15 16 17 18 19 20 21 22 23 24 25 26 27 28 29 30 31 32 33 34 35 36 37 38 39 40 41 42 43 44 45 46 47 48 49 50

888
NZUS93 KARX 231159
HRRWXR

CURRENT HOURLY OBSERVATIONS ACROSS
MUCH OF THE UPPER MISSISSIPPI VALLEY
NATIONAL WEATHER SERVICE LA CROSSE WI
700 AM CDT FRI JUN 23 2017


...SOUTHEAST MINNESOTA...


CITY           SKY/WX    TMP DP  RH WIND       PRES   REMARKS
ROCHESTER      SUNNY     61  56  83 W8        29.78R
ROCHESTER/MAYO FAIR      61  55  83 SW5       29.77R
WINONA         SUNNY     61  59  94 CALM      29.74R FOG
AUSTIN         SUNNY     61  55  82 W5        29.79R
ALBERT LEA     MOSUNNY   61  54  77 W8        29.80R
DODGE CENTER   SUNNY     59  54  82 W9        29.78R
PRESTON        SUNNY     60  53  78 SW6       29.78R
OWATONNA       SUNNY     59  55  88 W6        29.79R
FARIBAULT      SUNNY     61  54  77 W9        29.78R
$$

...ELSEWHERE IN MINNESOTA...


CITY           SKY/WX    TMP DP  RH WIND       PRES   REMARKS
MINNEAPOLIS    SUNNY     62  51  67 NW7       29.75R
INTNL FALLS    PTSUNNY   54  49  83 W9        29.62R
DULUTH         SUNNY     54  48  80 W10       29.66R
RED WING       SUNNY     59  57  94 CALM      29.73R
REDWOOD FALLS  SUNNY     58  48  69 W15       29.82R
MANKATO        SUNNY     59  50  72 NW12      29.80R
WORTHINGTON    SUNNY     57  48  72 NW12      29.89R
FAIRMONT       MOSUNNY   60  51  72 NW12      29.84R
$$

...SOUTHWEST WISCONSIN...


CITY           SKY/WX    TMP DP  RH WIND       PRES   REMARKS
LA CROSSE      SUNNY     64  64 100 S5        29.73S
PRAIRIE DU CHI CLOUDY    64  63  96 CALM      29.74S
BOSCOBEL       FOG       61  61 100 SW3       29.74S VSB<1/4
LONE ROCK      FOG       63  62  97 W3        29.72S VSB<1/4
PLATTEVILLE    CLOUDY    63  63 100 NW3       29.74F
FORT MC COY    FOG       57  57 100 CALM      29.73F VSB<1/4
CAMP DOUGLAS   FOG       61  61 100 CALM      29.71F VSB 1
MAUSTON-NEW LI SUNNY     60  60 100 CALM      29.71F FOG
VIROQUA        CLOUDY    60  60 100 W3        29.75S VSB<1/4
WIS DELLS      CLOUDY    63  61  95 W5        29.71F FOG
$$

...ELSEWHERE IN WISCONSIN...


CITY           SKY/WX    TMP DP  RH WIND       PRES   REMARKS
MILWAUKEE      CLOUDY    67  65  93 NW5       29.66F
MADISON        PTSUNNY   64  63  96 CALM      29.70S
GREEN BAY      CLOUDY    64  64 100 CALM      29.67F
EAU CLAIRE     NOT AVBL
BLACK RVR FLS  FOG       60  60 100 CALM      29.72S VSB 1/4
MEDFORD        SUNNY     57  55  95 SW5       29.71S
WAUSAU         SUNNY     60  58  92 CALM      29.68F
WIS RAPIDS     MOSUNNY   62  61  96 W3        29.71F
MARSHFIELD     SUNNY     60  58  92 SW5       29.70F
RICE LAKE      SUNNY     56  55  94 CALM      29.71S
$$

...NORTHEAST IOWA...


CITY           SKY/WX    TMP DP  RH WIND       PRES   REMARKS
WATERLOO       MOSUNNY   63  62  97 NW7       29.77R FOG
DUBUQUE        CLOUDY    63  60  90 N6        29.74F
DECORAH        FOG       63  61  94 W5        29.77R VSB<1/4
MASON CITY     MOSUNNY   61  56  83 W7        29.82R
CHARLES CITY   SUNNY     61  61 100 W5        29.80R
OELWEIN        MOSUNNY   63  63 100 NW7       29.78S FOG
$$

...ELSEWHERE IN IOWA...


CITY           SKY/WX    TMP DP  RH WIND       PRES   REMARKS
DES MOINES     MOSUNNY   65  61  87 NW8       29.82R
IOWA CITY      CLOUDY    69  63  81 N8        29.75R
FORT DODGE     SUNNY     59  52  77 CALM      29.86R
MARSHALLTOWN   MOSUNNY   62  62 100 NW7       29.79R
CEDAR RAPIDS   CLOUDY    65  65 100 N6        29.75R
$$

...NORTHERN ILLINOIS...


CITY           SKY/WX    TMP DP  RH WIND       PRES   REMARKS
CHICAGO-OHARE  CLOUDY    68  65  90 NW5       29.67R
CHICAGO-MIDWAY LGT RAIN  69  66  90 W5        29.68R
MOLINE         CLOUDY    69  64  84 N6        29.72R
ROCKFORD       PTSUNNY   67  64  90 N7        29.71R
PEORIA         LGT RAIN  70  67  90 CALM      29.67S
$$

NOTE: "FAIR" INDICATES FEW OR NO CLOUDS BELOW 12,000 FEET WITH NO
SIGNIFICANT WEATHER AND/OR OBSTRUCTIONS TO VISIBILITY. WIND
SPEEDS ARE IN MILES-PER-HOUR.




USA.gov is the U.S. government's official web portal to all federal, state and local government web resources and services.